Sacramento, CA

10:19 AM PDT on April 30, 2017 (GMT -0700)
Sacramento Executive

Weather History for KSAC - May, 2013

Change the Weather History Date:

Tuesday, May 28, 2013

  Actual Average Record
Temperature  
Mean Temperature 69 °F -  
Max Temperature 80 °F 83 °F 105 °F (1984)
Min Temperature 57 °F 53 °F 43 °F (2010)
Degree Days  
Heating Degree Days 0    
Cooling Degree Days 4    
Growing Degree Days 18 (Base 50)    
Moisture  
Dew Point 52 °F    
Average Humidity 58    
Maximum Humidity 86    
Minimum Humidity 30    
Precipitation  
Precipitation 0.00 in 0.02 in 1.10 in (1998)
Month to date precipitation 0.28 0.63  
Year to date precipitation 3.67 11.64  
Since 1 July precipitation 14.96  
Sea Level Pressure  
Sea Level Pressure 29.94 in    
Wind  
Wind Speed 6 mph (SSW)    
Max Wind Speed 12 mph    
Max Gust Speed 17 mph    
Visibility 10 miles    
Events      
T = Trace of Precipitation, MM = Missing Value Source: NWS Daily Summary

Daily Weather History Graph

Daily Weather History Graph

Search for Another Location

Airport or City:

Trip Planner

Search our weather history database for the weather conditions in past years. The results will help you decide how hot, cold, wet, or windy it might be!

Date:

Astronomy

May. 28, 2013 Rise Set
Actual Time 5:45 AM PDT 8:21 PM PDT
Civil Twilight 5:14 AM PDT 8:52 PM PDT
Nautical Twilight 4:35 AM PDT 9:31 PM PDT
Astronomical Twilight 3:52 AM PDT 10:14 PM PDT
Moon 11:50 PM PDT (5/28) 9:38 AM PDT (5/28)
Length of Visible Light 15h 38m
Length of Day
14h 36m
Waning Gibbous, 82% of the Moon is Illuminated
May 28
Waning Gibbous
May 31
Last Quarter
Jun 8
New
Jun 16
First Quarter
Jun 23
Full

Hourly Weather History & Observations

Time (PDT) Temp. Dew Point Humidity Pressure Visibility Wind Dir Wind Speed Gust Speed Precip Events Conditions
12:24 AM 57.2 °F 53.6 °F 88% 29.98 in 10.0 mi South 6.9 mph - N/A   Overcast
12:46 AM 57.2 °F 55.4 °F 94% 29.98 in 10.0 mi SSW 5.8 mph - N/A   Overcast
12:53 AM 57.9 °F 54.0 °F 87% 29.98 in 10.0 mi SSW 4.6 mph - N/A   Overcast
1:53 AM 57.9 °F 54.0 °F 87% 29.96 in 10.0 mi Variable 4.6 mph - N/A   Overcast
2:53 AM 57.9 °F 54.0 °F 87% 29.96 in 10.0 mi South 6.9 mph - N/A   Overcast
3:30 AM 57.2 °F 53.6 °F 88% 29.96 in 10.0 mi South 6.9 mph - N/A   Overcast
3:53 AM 57.9 °F 54.0 °F 87% 29.94 in 10.0 mi South 8.1 mph - N/A   Overcast
4:53 AM 57.9 °F 54.0 °F 87% 29.96 in 10.0 mi South 4.6 mph - N/A   Overcast
5:53 AM 57.0 °F 54.0 °F 89% 29.94 in 10.0 mi SSE 4.6 mph - N/A   Scattered Clouds
6:04 AM 57.2 °F 53.6 °F 88% 29.95 in 10.0 mi SSE 3.5 mph - N/A   Mostly Cloudy
6:34 AM 57.2 °F 53.6 °F 88% 29.95 in 10.0 mi SE 4.6 mph - N/A   Partly Cloudy
6:53 AM 57.9 °F 54.0 °F 87% 29.96 in 10.0 mi South 5.8 mph - N/A   Clear
7:09 AM 59.0 °F 53.6 °F 82% 29.96 in 10.0 mi South 4.6 mph - N/A   Scattered Clouds
7:20 AM 59.0 °F 53.6 °F 82% 29.96 in 10.0 mi South 6.9 mph - N/A   Mostly Cloudy
7:53 AM 59.0 °F 54.0 °F 83% 29.96 in 10.0 mi South 5.8 mph - N/A   Mostly Cloudy
8:35 AM 60.8 °F 55.4 °F 82% 29.96 in 10.0 mi South 6.9 mph - N/A   Mostly Cloudy
8:53 AM 62.1 °F 55.0 °F 78% 29.97 in 10.0 mi Variable 4.6 mph - N/A   Scattered Clouds
9:53 AM 64.9 °F 55.0 °F 70% 29.96 in 10.0 mi Variable 3.5 mph - N/A   Partly Cloudy
10:53 AM 69.1 °F 53.1 °F 57% 29.97 in 10.0 mi WSW 5.8 mph - N/A   Scattered Clouds
11:53 AM 73.9 °F 50.0 °F 43% 29.97 in 10.0 mi Variable 3.5 mph - N/A   Mostly Cloudy
12:53 PM 75.9 °F 48.9 °F 38% 29.96 in 10.0 mi Variable 4.6 mph - N/A   Scattered Clouds
1:53 PM 77.0 °F 48.9 °F 37% 29.95 in 10.0 mi Variable 3.5 mph - N/A   Scattered Clouds
2:53 PM 77.0 °F 48.0 °F 36% 29.94 in 10.0 mi West 6.9 mph - N/A   Clear
3:53 PM 77.0 °F 46.9 °F 34% 29.92 in 10.0 mi Calm Calm - N/A   Clear
4:53 PM 78.1 °F 45.0 °F 31% 29.90 in 10.0 mi WSW 8.1 mph - N/A   Clear
5:53 PM 78.1 °F 46.0 °F 32% 29.88 in 10.0 mi West 5.8 mph - N/A   Clear
6:53 PM 78.1 °F 45.0 °F 31% 29.87 in 10.0 mi WNW 5.8 mph - N/A   Clear
7:53 PM 72.0 °F 51.1 °F 48% 29.88 in 10.0 mi WSW 11.5 mph - N/A   Clear
8:53 PM 66.9 °F 50.0 °F 54% 29.88 in 10.0 mi SW 9.2 mph - N/A   Clear
9:53 PM 64.0 °F 50.0 °F 60% 29.88 in 10.0 mi SW 8.1 mph - N/A   Clear
10:53 PM 63.0 °F 48.9 °F 60% 29.89 in 10.0 mi SW 6.9 mph - N/A   Clear
11:53 PM 62.1 °F 48.9 °F 62% 29.88 in 10.0 mi South 4.6 mph - N/A   Clear